STARLINK-31665, 59655

Orbit data source: Space-Track

STARLINK-31665, 59655 is a payload satellite owned by SpaceX/Seattle (US) in LEO that was launched on Mon, 06 May 2024 UTC via an FALCON 9 launch vehicle from the Air Force Eastern Test Range (AFETR). Payload-class satellites include a variety of spacecraft equipped with specific instruments for various scientific and technological missions. These include communications satellites like Starlink; space stations such as the ISS; scientific satellites like the Hubble; Earth observation satellites from companies like Planet Labs, Umbra, and HawkEye 360; GPS; miniature CubeSats for education and research; and military/defense satellites.

Loading next visibility...
Identifier
59655, 2024-084B
Orbit
LEO
Country
Flag of USUS
Related business
Manufacturer
SpaceX/Seattle
Mission
Operational spacecraft
Bus & Motor
STARLINK V2M, Unknown motor
Mass
730 kg wet, ~700 kg dry
Launch date (UTC)
2024-05-06 (1 year ago)
Launch vehicle
FALCON 9
Launch site
Air Force Eastern Test Range (AFETR)
Object type
Payload
Rocket body
Debris
Shape & HBR
Unknown
Radar Cross Section
Large (>1 m²)

Expand to show TLE details & history
Last TLE update: 10 hours ago

TLE from 10 hours ago
0 STARLINK-31665
1 59655U 24084B   25242.17135682  .00000668  00000-0  33813-4 0  9998
2 59655  43.0035  39.8702 0001274 264.4544  95.6162 15.27576527 75120
Epoch: 2025-08-30T04:06Z
TLE epoch observation values (Epoch: 2025-08-30T04:06:45.229Z)
Latitude
-0.00004°
Longitude
-0.42777°
Altitude
482.921 km
Speed
7.626 km/s
True Right ascension
02h 39m 28s
True Declination
0° 00' 00"
Sunlit
Object was in full shadow at epoch
Visualization orbit readout
Latitude
Unknown
Longitude
Unknown
Altitude
Unknown
Speed
Unknown
Apparent Right ascension
Unknown
Apparent Declination
Unknown
Sunlit
N/A
Visualization observer readout
Local Sidereal Time
05:19:31
Azimuth
Unknown
Elevation
Unknown
Doppler factor
Unknown
Orbital elements
Apogee altitude
485.878 km
Perigee altitude
484.13 km
Semi-major axis
6,863.141 km
Eccentricity
0.00013
Inclination
43.0035°
RAAN
39.8702°
Arg. of periapsis
264.4544°
True anomaly
95.63073°
Mean anomaly
95.6162°
Eccentric anomaly
95.62346°
Mean motion
3.81732 °/min
Orbital period
94.31 mins
BSTAR
0.000033813
Loading maneuver chart data...
Computing Atmospheric mass density...
Loading historical data...
Loading historical data...
Loading historical data...
Loading historical data...
Loading historical data...
Loading historical data...
Loading historical data...

Documentation

Showing up to 5 results
|